sat.trackr.live / text

‹ back to catalog

TANDEM-X

NORAD 36605 · 2010-030A

PAYLOAD ACTIVE UNKNOWN

§ Identity

Operator
Country
GER
Launch date
2010-06-21
Launch site
TYMSC
Launch vehicle
Mass (kg)
RCS (m²)
2.49

Purposes: earth_obs

External: N2YO · Heavens-Above · Gunter

§ Orbital elements

Epoch: 2026-05-24T14:39:39.911904Z

Period
94.79 min
Inclination
97.4453°
Eccentricity
0.0001625
Mean motion
15.19147721 rev/d
Perigee alt
507.3 km
Apogee alt
509.5 km
Semi-major
6,886.6 km
B*
1.5507e-5
RAAN
152.6534°
Arg perigee
94.4891°
Mean anomaly
265.6529°
Rev number
88,306

§ Raw data

TANDEM-X1 36605U 10030A   26144.61087861  .00000259  00000+0  15507-4 0  99952 36605  97.4453 152.6534 0001625  94.4891 265.6529 15.19147721883067

JSON: /api/v1/satellites/36605 · /tle

For live sub-satellite position, see the globe view (requires WebGL).

§ Visibility from observer

Set your observer location to see the next 7 days of passes ≥ 10°. The values pass through the URL so the page stays shareable.

No JS? Fill the form by hand. The geolocation button needs JavaScript.

§ Radio — SatNOGS DB

ModeDescriptionDownlinkUplink
FM S-band telemetry 2.280 GHz
FM S-band telemetry 2.268 GHz

2 transmitters · refreshed weekly from db.satnogs.org